Time,TemperatureF,DewpointF,PressureIn,WindDirection,WindDirectionDegrees,WindSpeedMPH,WindSpeedGustMPH,Humidity,HourlyPrecipIn,Conditions,Clouds,dailyrainin,SoftwareType,DateUTC
2013-12-24 00:01:00,34.9,23.6,30.18,NW,315,2.5,2.7,63,0.00,,,0.00,WUHU216HW,2013-12-24 05:01:00,
2013-12-24 00:03:00,34.9,23.6,30.18,NNW,338,1.1,2.7,63,0.00,,,0.00,WUHU216HW,2013-12-24 05:03:00,
2013-12-24 00:08:00,34.9,23.9,30.18,NW,315,0.9,2.5,64,0.00,,,0.00,WUHU216HW,2013-12-24 05:08:00,
2013-12-24 00:13:00,34.9,23.9,30.17,NW,315,1.8,2.0,64,0.00,,,0.00,WUHU216HW,2013-12-24 05:13:00,
2013-12-24 00:18:00,34.7,23.8,30.17,NNW,338,1.1,1.8,64,0.00,,,0.00,WUHU216HW,2013-12-24 05:18:00,
2013-12-24 00:23:00,34.7,23.8,30.18,NNE,23,0.4,1.8,64,0.00,,,0.00,WUHU216HW,2013-12-24 05:23:00,
2013-12-24 00:28:00,34.7,23.8,30.18,NNW,338,0.4,1.1,64,0.00,,,0.00,WUHU216HW,2013-12-24 05:28:00,
2013-12-24 00:33:00,34.6,23.6,30.17,NNW,338,0.9,1.1,64,0.00,,,0.00,WUHU216HW,2013-12-24 05:33:00,
2013-12-24 00:38:00,34.4,23.8,30.17,NW,315,1.1,1.6,65,0.00,,,0.00,WUHU216HW,2013-12-24 05:38:00,
2013-12-24 00:43:00,34.4,23.8,30.17,NW,315,0.9,1.6,65,0.00,,,0.00,WUHU216HW,2013-12-24 05:43:00,
2013-12-24 00:48:00,34.2,23.6,30.17,NNW,338,0.4,1.3,65,0.00,,,0.00,WUHU216HW,2013-12-24 05:48:00,
2013-12-24 00:53:00,34.0,23.8,30.17,NW,315,0.7,1.1,66,0.00,,,0.00,WUHU216HW,2013-12-24 05:53:00,
2013-12-24 00:58:00,33.8,23.6,30.16,NNW,338,0.7,1.1,66,0.00,,,0.00,WUHU216HW,2013-12-24 05:58:00,
2013-12-24 01:03:00,33.7,23.4,30.17,NNW,338,0.7,1.1,66,0.00,,,0.00,WUHU216HW,2013-12-24 06:03:00,
2013-12-24 01:08:00,33.5,23.2,30.17,NNW,338,0.9,1.1,66,0.00,,,0.00,WUHU216HW,2013-12-24 06:08:00,
2013-12-24 01:13:00,33.5,23.2,30.17,NW,315,0.9,1.1,66,0.00,,,0.00,WUHU216HW,2013-12-24 06:13:00,
2013-12-24 01:18:00,33.3,23.1,30.17,NNW,338,1.3,1.8,66,0.00,,,0.00,WUHU216HW,2013-12-24 06:18:00,
2013-12-24 01:23:00,33.1,23.0,30.17,NW,315,1.1,1.8,66,0.00,,,0.00,WUHU216HW,2013-12-24 06:23:00,
2013-12-24 01:28:00,33.1,23.0,30.17,NW,315,0.9,1.3,66,0.00,,,0.00,WUHU216HW,2013-12-24 06:28:00,
2013-12-24 01:33:00,33.1,23.0,30.17,WNW,293,1.6,1.8,66,0.00,,,0.00,WUHU216HW,2013-12-24 06:33:00,
2013-12-24 01:38:00,32.9,22.8,30.17,NW,315,0.4,1.8,66,0.00,,,0.00,WUHU216HW,2013-12-24 06:38:00,
2013-12-24 01:43:00,32.9,22.8,30.17,NW,315,0.9,1.1,66,0.00,,,0.00,WUHU216HW,2013-12-24 06:43:00,
2013-12-24 01:48:00,32.8,23.0,30.17,NNW,338,1.1,1.8,67,0.00,,,0.00,WUHU216HW,2013-12-24 06:48:00,
2013-12-24 01:53:00,32.8,23.0,30.17,NNW,338,1.1,2.0,67,0.00,,,0.00,WUHU216HW,2013-12-24 06:53:00,
2013-12-24 01:58:00,32.8,23.0,30.17,NNW,338,0.7,2.0,67,0.00,,,0.00,WUHU216HW,2013-12-24 06:58:00,
2013-12-24 02:03:00,32.8,23.0,30.17,NW,315,0.7,1.6,67,0.00,,,0.00,WUHU216HW,2013-12-24 07:03:00,
2013-12-24 02:08:00,32.6,22.8,30.17,NW,315,0.7,1.1,67,0.00,,,0.00,WUHU216HW,2013-12-24 07:08:00,
2013-12-24 02:13:00,32.4,22.7,30.17,NNW,338,1.1,2.2,67,0.00,,,0.00,WUHU216HW,2013-12-24 07:13:00,
2013-12-24 02:18:00,32.4,22.7,30.17,NW,315,0.7,2.2,67,0.00,,,0.00,WUHU216HW,2013-12-24 07:18:00,
2013-12-24 02:23:00,32.4,22.7,30.17,NW,315,0.9,1.3,67,0.00,,,0.00,WUHU216HW,2013-12-24 07:23:00,
2013-12-24 02:28:00,32.2,22.5,30.17,NW,315,0.7,1.1,67,0.00,,,0.00,WUHU216HW,2013-12-24 07:28:00,
2013-12-24 02:33:00,32.0,22.3,30.17,NNW,338,0.9,1.1,67,0.00,,,0.00,WUHU216HW,2013-12-24 07:33:00,
2013-12-24 02:38:00,32.0,22.3,30.17,NNW,338,0.9,1.6,67,0.00,,,0.00,WUHU216HW,2013-12-24 07:38:00,
2013-12-24 02:43:00,32.0,22.3,30.17,NNW,338,2.0,2.2,67,0.00,,,0.00,WUHU216HW,2013-12-24 07:43:00,
2013-12-24 02:48:00,32.0,22.3,30.18,NNW,338,2.0,2.2,67,0.00,,,0.00,WUHU216HW,2013-12-24 07:48:00,
2013-12-24 02:53:00,32.0,22.0,30.17,NNW,338,1.3,2.2,66,0.00,,,0.00,WUHU216HW,2013-12-24 07:53:00,
2013-12-24 02:58:00,32.0,22.0,30.17,North,0,1.3,2.2,66,0.00,,,0.00,WUHU216HW,2013-12-24 07:58:00,
2013-12-24 03:03:00,31.9,21.8,30.17,NNW,338,0.4,2.2,66,0.00,,,0.00,WUHU216HW,2013-12-24 08:03:00,
2013-12-24 03:08:00,31.7,21.6,30.17,NNW,338,1.1,2.2,66,0.00,,,0.00,WUHU216HW,2013-12-24 08:08:00,
2013-12-24 03:13:00,31.5,21.8,30.17,NNW,338,1.6,1.6,67,0.00,,,0.00,WUHU216HW,2013-12-24 08:13:00,
2013-12-24 03:18:00,31.5,21.8,30.17,NNW,338,0.7,1.8,67,0.00,,,0.00,WUHU216HW,2013-12-24 08:18:00,
2013-12-24 03:23:00,31.3,21.6,30.16,North,0,0.9,1.8,67,0.00,,,0.00,WUHU216HW,2013-12-24 08:23:00,
2013-12-24 03:28:00,31.3,21.6,30.16,NNW,338,1.3,1.8,67,0.00,,,0.00,WUHU216HW,2013-12-24 08:28:00,
2013-12-24 03:33:00,31.3,21.2,30.16,NNW,338,1.3,2.7,66,0.00,,,0.00,WUHU216HW,2013-12-24 08:33:00,
2013-12-24 03:38:00,31.3,21.6,30.17,North,0,1.8,2.7,67,0.00,,,0.00,WUHU216HW,2013-12-24 08:38:00,
2013-12-24 03:43:00,31.3,21.2,30.16,NNW,338,2.2,3.1,66,0.00,,,0.00,WUHU216HW,2013-12-24 08:43:00,
2013-12-24 03:48:00,31.3,21.2,30.16,NNW,338,2.5,3.8,66,0.00,,,0.00,WUHU216HW,2013-12-24 08:48:00,
2013-12-24 03:53:00,31.1,21.1,30.16,NNW,338,1.8,6.9,66,0.00,,,0.00,WUHU216HW,2013-12-24 08:53:00,
2013-12-24 03:58:00,31.3,21.2,30.16,North,0,2.0,6.9,66,0.00,,,0.00,WUHU216HW,2013-12-24 08:58:00,
2013-12-24 04:03:00,31.3,21.2,30.15,NNW,338,1.1,3.8,66,0.00,,,0.00,WUHU216HW,2013-12-24 09:03:00,
2013-12-24 04:08:00,31.3,21.2,30.15,NW,315,2.7,3.8,66,0.00,,,0.00,WUHU216HW,2013-12-24 09:08:00,
2013-12-24 04:13:00,31.3,21.2,30.16,NNW,338,1.1,3.8,66,0.00,,,0.00,WUHU216HW,2013-12-24 09:13:00,
2013-12-24 04:18:00,31.3,21.2,30.15,NW,315,1.8,2.5,66,0.00,,,0.00,WUHU216HW,2013-12-24 09:18:00,
2013-12-24 04:23:00,31.1,21.1,30.16,NNW,338,0.4,2.5,66,0.00,,,0.00,WUHU216HW,2013-12-24 09:23:00,
2013-12-24 04:28:00,31.1,21.1,30.15,NW,315,0.9,2.5,66,0.00,,,0.00,WUHU216HW,2013-12-24 09:28:00,
2013-12-24 04:33:00,31.0,21.2,30.16,NW,315,1.1,1.3,67,0.00,,,0.00,WUHU216HW,2013-12-24 09:33:00,
2013-12-24 04:38:00,30.8,21.1,30.16,North,0,1.1,1.6,67,0.00,,,0.00,WUHU216HW,2013-12-24 09:38:00,
2013-12-24 04:43:00,30.8,21.1,30.16,NNE,23,0.7,1.6,67,0.00,,,0.00,WUHU216HW,2013-12-24 09:43:00,
2013-12-24 04:48:00,30.8,21.1,30.15,NW,315,1.1,1.6,67,0.00,,,0.00,WUHU216HW,2013-12-24 09:48:00,
2013-12-24 04:53:00,30.6,20.9,30.15,NNW,338,0.4,1.8,67,0.00,,,0.00,WUHU216HW,2013-12-24 09:53:00,
2013-12-24 04:58:00,30.6,20.9,30.15,SW,225,0.0,1.8,67,0.00,,,0.00,WUHU216HW,2013-12-24 09:58:00,
2013-12-24 05:03:00,30.6,20.9,30.15,North,0,1.6,1.6,67,0.00,,,0.00,WUHU216HW,2013-12-24 10:03:00,
2013-12-24 05:08:00,30.6,20.9,30.15,NNW,338,0.7,3.8,67,0.00,,,0.00,WUHU216HW,2013-12-24 10:08:00,
2013-12-24 05:13:00,30.6,20.9,30.15,North,0,2.0,3.8,67,0.00,,,0.00,WUHU216HW,2013-12-24 10:13:00,
2013-12-24 05:18:00,30.6,20.9,30.15,NNW,338,1.1,3.4,67,0.00,,,0.00,WUHU216HW,2013-12-24 10:18:00,
2013-12-24 05:23:00,30.6,20.9,30.15,NNW,338,0.9,3.4,67,0.00,,,0.00,WUHU216HW,2013-12-24 10:23:00,
2013-12-24 05:28:00,30.6,20.9,30.15,NW,315,0.4,2.0,67,0.00,,,0.00,WUHU216HW,2013-12-24 10:28:00,
2013-12-24 05:33:00,30.6,20.9,30.15,NW,315,1.1,1.3,67,0.00,,,0.00,WUHU216HW,2013-12-24 10:33:00,
2013-12-24 05:38:00,30.6,20.9,30.15,NNW,338,0.4,1.1,67,0.00,,,0.00,WUHU216HW,2013-12-24 10:38:00,
2013-12-24 05:44:00,30.4,20.7,30.15,NNW,338,0.4,0.4,67,0.00,,,0.00,WUHU216HW,2013-12-24 10:44:00,
2013-12-24 05:49:00,30.2,20.9,30.15,North,0,0.4,0.7,68,0.00,,,0.00,WUHU216HW,2013-12-24 10:49:00,
2013-12-24 05:54:00,30.2,21.2,30.15,North,0,1.1,1.1,69,0.00,,,0.00,WUHU216HW,2013-12-24 10:54:00,
2013-12-24 05:59:00,30.1,20.7,30.15,NNW,338,1.6,1.6,68,0.00,,,0.00,WUHU216HW,2013-12-24 10:59:00,
2013-12-24 06:04:00,30.2,20.5,30.15,North,0,2.5,2.5,67,0.00,,,0.00,WUHU216HW,2013-12-24 11:04:00,
2013-12-24 06:09:00,30.2,20.5,30.15,North,0,1.6,2.5,67,0.00,,,0.00,WUHU216HW,2013-12-24 11:09:00,
2013-12-24 06:14:00,30.2,20.9,30.15,North,0,1.6,2.5,68,0.00,,,0.00,WUHU216HW,2013-12-24 11:14:00,
2013-12-24 06:19:00,30.2,20.9,30.15,North,0,3.1,3.4,68,0.00,,,0.00,WUHU216HW,2013-12-24 11:19:00,
2013-12-24 06:24:00,30.1,20.7,30.15,NNE,23,1.6,3.4,68,0.00,,,0.00,WUHU216HW,2013-12-24 11:24:00,
2013-12-24 06:29:00,30.1,20.7,30.15,NNE,23,0.9,3.4,68,0.00,,,0.00,WUHU216HW,2013-12-24 11:29:00,
2013-12-24 06:34:00,29.9,20.5,30.15,North,0,0.9,3.4,68,0.00,,,0.00,WUHU216HW,2013-12-24 11:34:00,
2013-12-24 06:39:00,29.9,20.5,30.15,North,0,0.4,2.5,68,0.00,,,0.00,WUHU216HW,2013-12-24 11:39:00,
2013-12-24 06:44:00,29.9,20.5,30.15,NNE,23,0.0,2.5,68,0.00,,,0.00,WUHU216HW,2013-12-24 11:44:00,
2013-12-24 06:49:00,29.9,20.5,30.16,NNE,23,0.0,1.1,68,0.00,,,0.00,WUHU216HW,2013-12-24 11:49:00,
2013-12-24 06:54:00,29.7,20.4,30.16,North,0,0.0,1.3,68,0.00,,,0.00,WUHU216HW,2013-12-24 11:54:00,
2013-12-24 06:59:00,29.5,20.3,30.15,North,0,0.0,1.3,68,0.00,,,0.00,WUHU216HW,2013-12-24 11:59:00,
2013-12-24 07:04:00,29.3,20.4,30.16,NNW,338,0.0,0.2,69,0.00,,,0.00,WUHU216HW,2013-12-24 12:04:00,
2013-12-24 07:09:00,29.2,20.3,30.15,North,0,0.0,0.2,69,0.00,,,0.00,WUHU216HW,2013-12-24 12:09:00,
2013-12-24 07:14:00,29.2,20.6,30.16,North,0,1.1,1.1,70,0.00,,,0.00,WUHU216HW,2013-12-24 12:14:00,
2013-12-24 07:19:00,29.0,20.4,30.16,NNW,338,0.7,1.1,70,0.00,,,0.00,WUHU216HW,2013-12-24 12:19:00,
2013-12-24 07:24:00,29.2,20.6,30.16,NNW,338,0.4,0.7,70,0.00,,,0.00,WUHU216HW,2013-12-24 12:24:00,
2013-12-24 07:29:00,29.3,20.8,30.16,NNW,338,0.7,1.1,70,0.00,,,0.00,WUHU216HW,2013-12-24 12:29:00,
2013-12-24 07:34:00,29.9,21.2,30.16,NW,315,1.6,1.6,70,0.00,,,0.00,WUHU216HW,2013-12-24 12:34:00,
2013-12-24 07:39:00,30.2,21.2,30.17,NW,315,1.8,1.8,69,0.00,,,0.00,WUHU216HW,2013-12-24 12:39:00,
2013-12-24 07:44:00,30.6,21.2,30.17,North,0,0.7,2.2,68,0.00,,,0.00,WUHU216HW,2013-12-24 12:44:00,
2013-12-24 07:49:00,30.8,21.1,30.17,NW,315,0.7,2.2,67,0.00,,,0.00,WUHU216HW,2013-12-24 12:49:00,
2013-12-24 07:54:00,31.1,21.4,30.17,NW,315,0.4,2.0,67,0.00,,,0.00,WUHU216HW,2013-12-24 12:54:00,
2013-12-24 07:59:00,31.3,21.2,30.17,NNW,338,0.9,1.3,66,0.00,,,0.00,WUHU216HW,2013-12-24 12:59:00,
2013-12-24 08:04:00,31.3,21.2,30.17,NNW,338,0.9,1.3,66,0.00,,,0.00,WUHU216HW,2013-12-24 13:04:00,
2013-12-24 08:09:00,31.3,21.2,30.18,NNW,338,0.4,2.0,66,0.00,,,0.00,WUHU216HW,2013-12-24 13:09:00,
2013-12-24 08:14:00,31.5,21.4,30.17,North,0,1.1,2.0,66,0.00,,,0.00,WUHU216HW,2013-12-24 13:14:00,
2013-12-24 08:19:00,31.7,21.6,30.17,North,0,0.7,1.1,66,0.00,,,0.00,WUHU216HW,2013-12-24 13:19:00,
2013-12-24 08:24:00,31.9,21.8,30.18,North,0,0.4,1.1,66,0.00,,,0.00,WUHU216HW,2013-12-24 13:24:00,
2013-12-24 08:29:00,32.0,22.0,30.18,NNW,338,0.9,1.8,66,0.00,,,0.00,WUHU216HW,2013-12-24 13:29:00,
2013-12-24 08:34:00,32.0,22.0,30.18,NNW,338,0.4,1.8,66,0.00,,,0.00,WUHU216HW,2013-12-24 13:34:00,
2013-12-24 08:39:00,32.2,21.8,30.18,WNW,293,1.8,2.0,65,0.00,,,0.00,WUHU216HW,2013-12-24 13:39:00,
2013-12-24 08:44:00,32.4,22.0,30.18,WNW,293,2.9,2.9,65,0.00,,,0.00,WUHU216HW,2013-12-24 13:44:00,
2013-12-24 08:49:00,32.8,22.2,30.18,NNW,338,1.8,2.9,65,0.00,,,0.00,WUHU216HW,2013-12-24 13:49:00,
2013-12-24 08:54:00,32.8,22.2,30.18,NW,315,2.9,2.9,65,0.00,,,0.00,WUHU216HW,2013-12-24 13:54:00,
2013-12-24 08:59:00,33.1,22.2,30.18,NNW,338,0.0,2.9,64,0.00,,,0.00,WUHU216HW,2013-12-24 13:59:00,
2013-12-24 09:04:00,33.5,22.1,30.18,North,0,1.1,2.9,63,0.00,,,0.00,WUHU216HW,2013-12-24 14:04:00,
2013-12-24 09:11:00,33.7,22.7,30.18,NNW,338,0.9,2.5,64,0.00,,,0.00,WUHU216HW,2013-12-24 14:11:00,
2013-12-24 09:16:00,33.8,22.9,30.18,North,0,2.5,2.5,64,0.00,,,0.00,WUHU216HW,2013-12-24 14:16:00,
2013-12-24 09:21:00,34.2,22.5,30.18,NW,315,0.4,2.5,62,0.00,,,0.00,WUHU216HW,2013-12-24 14:21:00,
2013-12-24 09:26:00,34.2,22.9,30.18,NNW,338,1.1,2.5,63,0.00,,,0.00,WUHU216HW,2013-12-24 14:26:00,
2013-12-24 09:31:00,34.4,22.7,30.19,North,0,1.1,1.6,62,0.00,,,0.00,WUHU216HW,2013-12-24 14:31:00,
2013-12-24 09:36:00,34.4,22.3,30.18,NW,315,2.2,2.2,61,0.00,,,0.00,WUHU216HW,2013-12-24 14:36:00,
2013-12-24 09:41:00,34.2,22.5,30.19,NW,315,1.3,3.4,62,0.00,,,0.00,WUHU216HW,2013-12-24 14:41:00,
2013-12-24 09:46:00,34.0,22.3,30.19,NNW,338,2.2,4.0,62,0.00,,,0.00,WUHU216HW,2013-12-24 14:46:00,
2013-12-24 09:51:00,34.0,22.7,30.20,West,270,0.0,4.5,63,0.00,,,0.00,WUHU216HW,2013-12-24 14:51:00,
2013-12-24 09:56:00,34.4,23.4,30.20,NW,315,1.1,4.7,64,0.00,,,0.00,WUHU216HW,2013-12-24 14:56:00,
2013-12-24 10:01:00,34.7,21.9,30.20,NW,315,1.3,4.7,59,0.00,,,0.00,WUHU216HW,2013-12-24 15:01:00,
2013-12-24 10:06:00,34.9,22.5,30.20,NNW,338,1.8,5.4,60,0.00,,,0.00,WUHU216HW,2013-12-24 15:06:00,
2013-12-24 10:11:00,35.1,22.7,30.20,NNW,338,1.8,5.4,60,0.00,,,0.00,WUHU216HW,2013-12-24 15:11:00,
2013-12-24 10:16:00,35.3,22.4,30.20,NNW,338,2.2,2.7,59,0.00,,,0.00,WUHU216HW,2013-12-24 15:16:00,
2013-12-24 10:21:00,35.3,21.6,30.20,NNE,23,3.4,4.0,57,0.00,,,0.00,WUHU216HW,2013-12-24 15:21:00,
2013-12-24 10:26:00,34.9,20.8,30.19,North,0,3.1,4.0,56,0.00,,,0.00,WUHU216HW,2013-12-24 15:26:00,
2013-12-24 10:31:00,34.9,21.3,30.19,NW,315,4.0,4.0,57,0.00,,,0.00,WUHU216HW,2013-12-24 15:31:00,
2013-12-24 10:36:00,34.9,20.8,30.19,North,0,0.7,4.0,56,0.00,,,0.00,WUHU216HW,2013-12-24 15:36:00,
2013-12-24 10:41:00,34.9,21.6,30.19,WNW,293,2.2,3.4,58,0.00,,,0.00,WUHU216HW,2013-12-24 15:41:00,
2013-12-24 10:46:00,35.1,21.0,30.20,NW,315,2.2,2.2,56,0.00,,,0.00,WUHU216HW,2013-12-24 15:46:00,
2013-12-24 10:51:00,35.1,21.0,30.19,SW,225,1.8,3.4,56,0.00,,,0.00,WUHU216HW,2013-12-24 15:51:00,
2013-12-24 10:56:00,35.3,22.0,30.19,NW,315,1.8,3.4,58,0.00,,,0.00,WUHU216HW,2013-12-24 15:56:00,
2013-12-24 11:01:00,35.3,21.2,30.19,NNW,338,0.9,2.0,56,0.00,,,0.00,WUHU216HW,2013-12-24 16:01:00,
2013-12-24 11:06:00,35.5,21.8,30.18,SSW,203,0.7,1.8,57,0.00,,,0.00,WUHU216HW,2013-12-24 16:06:00,
2013-12-24 11:11:00,35.6,21.1,30.18,NW,315,3.4,3.4,55,0.00,,,0.00,WUHU216HW,2013-12-24 16:11:00,
2013-12-24 11:16:00,35.6,21.5,30.18,West,270,0.7,3.8,56,0.00,,,0.00,WUHU216HW,2013-12-24 16:16:00,
2013-12-24 11:21:00,35.6,20.6,30.18,NW,315,2.2,3.8,54,0.00,,,0.00,WUHU216HW,2013-12-24 16:21:00,
2013-12-24 11:26:00,35.6,20.6,30.18,NNW,338,1.6,3.4,54,0.00,,,0.00,WUHU216HW,2013-12-24 16:26:00,
2013-12-24 11:31:00,35.8,20.3,30.17,NW,315,3.4,3.4,53,0.00,,,0.00,WUHU216HW,2013-12-24 16:31:00,
2013-12-24 11:36:00,35.8,20.8,30.17,WNW,293,1.3,3.4,54,0.00,,,0.00,WUHU216HW,2013-12-24 16:36:00,
2013-12-24 11:41:00,35.8,20.8,30.17,WSW,248,1.1,3.4,54,0.00,,,0.00,WUHU216HW,2013-12-24 16:41:00,
2013-12-24 11:46:00,36.0,21.0,30.16,NW,315,2.5,3.4,54,0.00,,,0.00,WUHU216HW,2013-12-24 16:46:00,
2013-12-24 11:51:00,36.4,22.1,30.16,WNW,293,2.7,2.7,56,0.00,,,0.00,WUHU216HW,2013-12-24 16:51:00,
2013-12-24 11:56:00,36.7,21.6,30.16,NW,315,2.5,5.1,54,0.00,,,0.00,WUHU216HW,2013-12-24 16:56:00,
2013-12-24 12:01:00,36.9,21.8,30.16,NNW,338,5.4,5.4,54,0.00,,,0.00,WUHU216HW,2013-12-24 17:01:00,
2013-12-24 12:06:00,36.7,21.6,30.16,WNW,293,4.0,5.4,54,0.00,,,0.00,WUHU216HW,2013-12-24 17:06:00,
2013-12-24 12:11:00,36.4,20.9,30.16,NNW,338,2.2,5.4,53,0.00,,,0.00,WUHU216HW,2013-12-24 17:11:00,
2013-12-24 12:16:00,36.2,20.7,30.16,NW,315,4.5,5.1,53,0.00,,,0.00,WUHU216HW,2013-12-24 17:16:00,
2013-12-24 12:21:00,35.8,20.8,30.15,WNW,293,2.7,5.1,54,0.00,,,0.00,WUHU216HW,2013-12-24 17:21:00,
2013-12-24 12:26:00,36.0,21.0,30.15,West,270,2.7,4.7,54,0.00,,,0.00,WUHU216HW,2013-12-24 17:26:00,
2013-12-24 12:31:00,36.2,21.2,30.15,North,0,4.0,4.7,54,0.00,,,0.00,WUHU216HW,2013-12-24 17:31:00,
2013-12-24 12:36:00,36.0,22.2,30.15,WNW,293,4.7,6.0,57,0.00,,,0.00,WUHU216HW,2013-12-24 17:36:00,
2013-12-24 12:41:00,35.5,22.6,30.15,NW,315,3.6,6.3,59,0.00,,,0.00,WUHU216HW,2013-12-24 17:41:00,
2013-12-24 12:46:00,35.3,22.9,30.15,North,0,1.8,6.3,60,0.00,,,0.00,WUHU216HW,2013-12-24 17:46:00,
2013-12-24 12:51:00,35.5,23.0,30.15,NNW,338,2.5,5.1,60,0.00,,,0.00,WUHU216HW,2013-12-24 17:51:00,
2013-12-24 12:56:00,35.5,21.8,30.15,WNW,293,2.0,3.4,57,0.00,,,0.00,WUHU216HW,2013-12-24 17:56:00,
2013-12-24 13:01:00,35.5,20.9,30.15,SW,225,2.5,4.7,55,0.00,,,0.00,WUHU216HW,2013-12-24 18:01:00,
2013-12-24 13:06:00,35.5,20.4,30.15,NW,315,4.0,6.0,54,0.00,,,0.00,WUHU216HW,2013-12-24 18:06:00,
2013-12-24 13:11:00,35.6,20.2,30.15,North,0,2.5,6.0,53,0.00,,,0.00,WUHU216HW,2013-12-24 18:11:00,
2013-12-24 13:17:00,35.8,19.9,30.15,North,0,6.3,8.1,52,0.00,,,0.00,WUHU216HW,2013-12-24 18:17:00,
2013-12-24 13:22:00,37.1,20.6,30.15,NNW,338,1.8,6.3,51,0.00,,,0.00,WUHU216HW,2013-12-24 18:22:00,
2013-12-24 13:27:00,37.8,19.8,30.16,West,270,5.8,5.8,48,0.00,,,0.00,WUHU216HW,2013-12-24 18:27:00,
2013-12-24 13:32:00,37.4,20.0,30.16,NW,315,6.7,8.5,49,0.00,,,0.00,WUHU216HW,2013-12-24 18:32:00,
2013-12-24 13:37:00,35.6,19.8,30.16,NNW,338,6.3,9.2,52,0.00,,,0.00,WUHU216HW,2013-12-24 18:37:00,
2013-12-24 13:42:00,35.3,19.5,30.17,NW,315,6.3,9.2,52,0.00,,,0.00,WUHU216HW,2013-12-24 18:42:00,
2013-12-24 13:47:00,34.7,20.6,30.17,NW,315,3.6,6.9,56,0.00,,,0.00,WUHU216HW,2013-12-24 18:47:00,
2013-12-24 13:52:00,34.6,20.4,30.17,NW,315,2.5,6.9,56,0.00,,,0.00,WUHU216HW,2013-12-24 18:52:00,
2013-12-24 13:57:00,34.6,20.0,30.17,NW,315,4.3,6.0,55,0.00,,,0.00,WUHU216HW,2013-12-24 18:57:00,
2013-12-24 14:02:00,34.9,20.3,30.17,NW,315,3.4,6.0,55,0.00,,,0.00,WUHU216HW,2013-12-24 19:02:00,
2013-12-24 14:07:00,35.3,20.3,30.18,WNW,293,3.6,6.0,54,0.00,,,0.00,WUHU216HW,2013-12-24 19:07:00,
2013-12-24 14:12:00,35.5,19.2,30.17,NW,315,5.4,6.0,51,0.00,,,0.00,WUHU216HW,2013-12-24 19:12:00,
2013-12-24 14:17:00,35.5,20.4,30.18,North,0,13.2,13.2,54,0.00,,,0.00,WUHU216HW,2013-12-24 19:17:00,
2013-12-24 14:22:00,34.9,20.3,30.19,NNW,338,8.5,13.2,55,0.00,,,0.00,WUHU216HW,2013-12-24 19:22:00,
2013-12-24 14:27:00,33.3,21.3,30.20,NNW,338,8.3,12.5,61,0.00,,,0.00,WUHU216HW,2013-12-24 19:27:00,
2013-12-24 14:32:00,32.4,21.6,30.20,North,0,5.6,11.4,64,0.00,,,0.00,WUHU216HW,2013-12-24 19:32:00,
2013-12-24 14:37:00,31.7,20.9,30.21,North,0,2.7,9.4,64,0.00,,,0.00,WUHU216HW,2013-12-24 19:37:00,
2013-12-24 14:42:00,31.7,20.2,30.21,North,0,2.7,7.2,62,0.00,,,0.00,WUHU216HW,2013-12-24 19:42:00,
2013-12-24 14:47:00,31.7,19.4,30.20,NW,315,2.9,6.9,60,0.00,,,0.00,WUHU216HW,2013-12-24 19:47:00,
2013-12-24 14:52:00,31.9,19.2,30.20,NNW,338,3.4,6.3,59,0.00,,,0.00,WUHU216HW,2013-12-24 19:52:00,
2013-12-24 14:57:00,32.6,18.5,30.20,NNW,338,2.0,5.1,56,0.00,,,0.00,WUHU216HW,2013-12-24 19:57:00,
2013-12-24 15:02:00,32.9,18.0,30.20,NNW,338,6.9,6.9,54,0.00,,,0.00,WUHU216HW,2013-12-24 20:02:00,
2013-12-24 15:07:00,32.9,17.6,30.20,NNW,338,5.4,9.6,53,0.00,,,0.00,WUHU216HW,2013-12-24 20:07:00,
2013-12-24 15:12:00,32.8,17.0,30.21,NNW,338,4.5,9.6,52,0.00,,,0.00,WUHU216HW,2013-12-24 20:12:00,
2013-12-24 15:17:00,32.6,17.3,30.22,NNW,338,3.4,8.5,53,0.00,,,0.00,WUHU216HW,2013-12-24 20:17:00,
2013-12-24 15:22:00,32.4,16.7,30.22,NNW,338,3.1,6.9,52,0.00,,,0.00,WUHU216HW,2013-12-24 20:22:00,
2013-12-24 15:27:00,32.6,15.9,30.22,WSW,248,2.9,6.9,50,0.00,,,0.00,WUHU216HW,2013-12-24 20:27:00,
2013-12-24 15:32:00,32.4,13.8,30.23,WNW,293,8.5,8.5,46,0.00,,,0.00,WUHU216HW,2013-12-24 20:32:00,
2013-12-24 15:37:00,32.0,13.0,30.23,WNW,293,4.5,8.5,45,0.00,,,0.00,WUHU216HW,2013-12-24 20:37:00,
2013-12-24 15:42:00,32.0,12.0,30.23,NNW,338,7.6,9.4,43,0.00,,,0.00,WUHU216HW,2013-12-24 20:42:00,
2013-12-24 15:47:00,31.5,12.5,30.23,WNW,293,3.8,9.8,45,0.00,,,0.00,WUHU216HW,2013-12-24 20:47:00,
2013-12-24 15:52:00,31.3,12.8,30.23,NW,315,2.0,9.8,46,0.00,,,0.00,WUHU216HW,2013-12-24 20:52:00,
2013-12-24 15:57:00,31.1,13.1,30.24,NW,315,2.5,5.8,47,0.00,,,0.00,WUHU216HW,2013-12-24 20:57:00,
2013-12-24 16:02:00,31.0,14.1,30.24,NW,315,3.8,5.8,49,0.00,,,0.00,WUHU216HW,2013-12-24 21:02:00,
2013-12-24 16:07:00,31.0,13.5,30.25,NW,315,3.6,3.8,48,0.00,,,0.00,WUHU216HW,2013-12-24 21:07:00,
2013-12-24 16:12:00,30.6,11.2,30.26,NW,315,4.5,4.7,44,0.00,,,0.00,WUHU216HW,2013-12-24 21:12:00,
2013-12-24 16:17:00,30.4,11.0,30.26,NNW,338,6.7,6.7,44,0.00,,,0.00,WUHU216HW,2013-12-24 21:17:00,
2013-12-24 16:22:00,30.2,10.8,30.26,NW,315,4.0,7.2,44,0.00,,,0.00,WUHU216HW,2013-12-24 21:22:00,
2013-12-24 16:27:00,29.9,10.5,30.26,NNW,338,3.8,7.6,44,0.00,,,0.00,WUHU216HW,2013-12-24 21:27:00,
2013-12-24 16:32:00,29.9,11.5,30.26,NW,315,2.9,7.6,46,0.00,,,0.00,WUHU216HW,2013-12-24 21:32:00,
2013-12-24 16:37:00,29.7,11.9,30.27,NNW,338,1.3,6.3,47,0.00,,,0.00,WUHU216HW,2013-12-24 21:37:00,
2013-12-24 16:42:00,29.5,11.2,30.27,WNW,293,4.0,5.4,46,0.00,,,0.00,WUHU216HW,2013-12-24 21:42:00,
2013-12-24 16:47:00,29.5,11.2,30.27,NW,315,2.5,4.0,46,0.00,,,0.00,WUHU216HW,2013-12-24 21:47:00,
2013-12-24 16:52:00,29.3,12.1,30.27,WNW,293,0.4,4.0,48,0.00,,,0.00,WUHU216HW,2013-12-24 21:52:00,
2013-12-24 16:57:00,29.2,12.4,30.28,NNW,338,4.7,4.7,49,0.00,,,0.00,WUHU216HW,2013-12-24 21:57:00,
2013-12-24 17:02:00,28.8,11.5,30.28,WNW,293,2.5,4.7,48,0.00,,,0.00,WUHU216HW,2013-12-24 22:02:00,
2013-12-24 17:07:00,28.4,10.3,30.28,North,0,7.4,7.4,46,0.00,,,0.00,WUHU216HW,2013-12-24 22:07:00,
2013-12-24 17:12:00,28.4,9.7,30.28,NW,315,7.6,8.1,45,0.00,,,0.00,WUHU216HW,2013-12-24 22:12:00,
2013-12-24 17:17:00,28.3,9.5,30.28,NW,315,2.7,8.1,45,0.00,,,0.00,WUHU216HW,2013-12-24 22:17:00,
2013-12-24 17:22:00,27.9,8.7,30.29,NW,315,3.8,7.4,44,0.00,,,0.00,WUHU216HW,2013-12-24 22:22:00,
2013-12-24 17:27:00,27.9,8.2,30.29,NNW,338,7.6,8.5,43,0.00,,,0.00,WUHU216HW,2013-12-24 22:27:00,
2013-12-24 17:32:00,27.7,8.0,30.29,NW,315,4.7,8.7,43,0.00,,,0.00,WUHU216HW,2013-12-24 22:32:00,
2013-12-24 17:37:00,27.7,7.6,30.30,NW,315,9.2,9.2,42,0.00,,,0.00,WUHU216HW,2013-12-24 22:37:00,
2013-12-24 17:42:00,27.5,7.8,30.30,North,0,3.6,9.2,43,0.00,,,0.00,WUHU216HW,2013-12-24 22:42:00,
2013-12-24 17:47:00,27.4,8.7,30.31,NW,315,3.4,9.2,45,0.00,,,0.00,WUHU216HW,2013-12-24 22:47:00,
2013-12-24 17:52:00,27.2,8.0,30.31,North,0,6.9,6.9,44,0.00,,,0.00,WUHU216HW,2013-12-24 22:52:00,
2013-12-24 17:57:00,27.0,8.4,30.31,North,0,3.4,7.2,45,0.00,,,0.00,WUHU216HW,2013-12-24 22:57:00,
2013-12-24 18:02:00,27.0,7.8,30.31,North,0,7.2,9.2,44,0.00,,,0.00,WUHU216HW,2013-12-24 23:02:00,
2013-12-24 18:07:00,26.8,8.2,30.32,NNW,338,4.0,9.2,45,0.00,,,0.00,WUHU216HW,2013-12-24 23:07:00,
2013-12-24 18:12:00,26.6,7.6,30.32,NW,315,1.8,9.8,44,0.00,,,0.00,WUHU216HW,2013-12-24 23:12:00,
2013-12-24 18:17:00,26.5,6.8,30.32,North,0,10.5,10.5,43,0.00,,,0.00,WUHU216HW,2013-12-24 23:17:00,
2013-12-24 18:22:00,26.3,6.8,30.33,NW,315,5.6,10.5,43,0.00,,,0.00,WUHU216HW,2013-12-24 23:22:00,
2013-12-24 18:27:00,26.3,7.2,30.33,NW,315,7.6,8.5,44,0.00,,,0.00,WUHU216HW,2013-12-24 23:27:00,
2013-12-24 18:32:00,26.1,7.0,30.33,NW,315,4.0,7.6,44,0.00,,,0.00,WUHU216HW,2013-12-24 23:32:00,
2013-12-24 18:37:00,25.9,8.4,30.34,North,0,5.4,6.3,47,0.00,,,0.00,WUHU216HW,2013-12-24 23:37:00,
2013-12-24 18:42:00,25.7,8.6,30.34,North,0,3.4,5.4,48,0.00,,,0.00,WUHU216HW,2013-12-24 23:42:00,
2013-12-24 18:47:00,25.4,8.4,30.34,North,0,5.8,5.8,48,0.00,,,0.00,WUHU216HW,2013-12-24 23:47:00,
2013-12-24 18:52:00,25.2,8.2,30.34,North,0,6.9,6.9,48,0.00,,,0.00,WUHU216HW,2013-12-24 23:52:00,
2013-12-24 18:57:00,25.0,8.5,30.34,NW,315,3.6,6.9,49,0.00,,,0.00,WUHU216HW,2013-12-24 23:57:00,
2013-12-24 19:02:00,24.8,8.4,30.35,North,0,5.4,8.5,49,0.00,,,0.00,WUHU216HW,2013-12-25 00:02:00,
2013-12-24 19:07:00,24.7,7.7,30.35,NNW,338,4.7,8.5,48,0.00,,,0.00,WUHU216HW,2013-12-25 00:07:00,
2013-12-24 19:12:00,24.5,7.6,30.36,NW,315,8.1,8.1,48,0.00,,,0.00,WUHU216HW,2013-12-25 00:12:00,
2013-12-24 19:17:00,24.1,7.2,30.36,NW,315,2.7,8.1,48,0.00,,,0.00,WUHU216HW,2013-12-25 00:17:00,
2013-12-24 19:22:00,24.1,7.2,30.37,NNE,23,4.9,9.2,48,0.00,,,0.00,WUHU216HW,2013-12-25 00:22:00,
2013-12-24 19:27:00,24.1,7.2,30.37,NW,315,1.1,9.2,48,0.00,,,0.00,WUHU216HW,2013-12-25 00:27:00,
2013-12-24 19:32:00,23.9,7.6,30.38,North,0,1.8,5.4,49,0.00,,,0.00,WUHU216HW,2013-12-25 00:32:00,
2013-12-24 19:37:00,23.8,7.4,30.38,NNE,23,3.1,5.4,49,0.00,,,0.00,WUHU216HW,2013-12-25 00:37:00,
2013-12-24 19:42:00,23.6,7.2,30.38,NNW,338,4.7,4.7,49,0.00,,,0.00,WUHU216HW,2013-12-25 00:42:00,
2013-12-24 19:47:00,23.4,6.0,30.38,North,0,3.8,7.2,47,0.00,,,0.00,WUHU216HW,2013-12-25 00:47:00,
2013-12-24 19:52:00,23.2,6.4,30.38,NNE,23,4.5,11.4,48,0.00,,,0.00,WUHU216HW,2013-12-25 00:52:00,
2013-12-24 19:57:00,23.0,6.8,30.38,North,0,6.3,11.4,49,0.00,,,0.00,WUHU216HW,2013-12-25 00:57:00,
2013-12-24 20:02:00,22.9,6.6,30.38,NNE,23,4.7,8.9,49,0.00,,,0.00,WUHU216HW,2013-12-25 01:02:00,
2013-12-24 20:07:00,22.7,6.4,30.38,NNW,338,5.1,8.5,49,0.00,,,0.00,WUHU216HW,2013-12-25 01:07:00,
2013-12-24 20:12:00,22.7,6.4,30.38,NNW,338,3.4,6.5,49,0.00,,,0.00,WUHU216HW,2013-12-25 01:12:00,
2013-12-24 20:17:00,22.5,6.7,30.38,NNW,338,6.9,6.9,50,0.00,,,0.00,WUHU216HW,2013-12-25 01:17:00,
2013-12-24 20:22:00,22.5,6.7,30.38,NNW,338,3.8,6.9,50,0.00,,,0.00,WUHU216HW,2013-12-25 01:22:00,
2013-12-24 20:27:00,22.3,6.5,30.38,NNW,338,6.3,6.5,50,0.00,,,0.00,WUHU216HW,2013-12-25 01:27:00,
2013-12-24 20:32:00,22.3,6.5,30.38,NW,315,3.4,6.5,50,0.00,,,0.00,WUHU216HW,2013-12-25 01:32:00,
2013-12-24 20:37:00,22.1,6.8,30.39,NW,315,3.1,6.5,51,0.00,,,0.00,WUHU216HW,2013-12-25 01:37:00,
2013-12-24 20:42:00,22.1,6.8,30.39,NNW,338,2.0,5.8,51,0.00,,,0.00,WUHU216HW,2013-12-25 01:42:00,
2013-12-24 20:47:00,22.0,6.9,30.39,NNW,338,4.7,4.9,52,0.00,,,0.00,WUHU216HW,2013-12-25 01:47:00,
2013-12-24 20:52:00,22.0,6.9,30.38,NNW,338,6.5,6.5,52,0.00,,,0.00,WUHU216HW,2013-12-25 01:52:00,
2013-12-24 20:57:00,22.0,6.9,30.38,NNW,338,4.0,6.5,52,0.00,,,0.00,WUHU216HW,2013-12-25 01:57:00,
2013-12-24 21:02:00,21.8,7.2,30.38,WNW,293,4.0,8.1,53,0.00,,,0.00,WUHU216HW,2013-12-25 02:02:00,
2013-12-24 21:07:00,21.8,7.2,30.39,NNW,338,3.1,8.1,53,0.00,,,0.00,WUHU216HW,2013-12-25 02:07:00,
2013-12-24 21:12:00,21.6,7.4,30.39,North,0,4.0,6.0,54,0.00,,,0.00,WUHU216HW,2013-12-25 02:12:00,
2013-12-24 21:17:00,21.4,7.2,30.39,NW,315,1.6,5.4,54,0.00,,,0.00,WUHU216HW,2013-12-25 02:17:00,
2013-12-24 21:22:00,21.4,7.2,30.39,NW,315,3.8,6.0,54,0.00,,,0.00,WUHU216HW,2013-12-25 02:22:00,
2013-12-24 21:27:00,21.2,7.5,30.40,NNW,338,3.6,6.0,55,0.00,,,0.00,WUHU216HW,2013-12-25 02:27:00,
2013-12-24 21:32:00,21.2,7.0,30.40,North,0,3.4,6.9,54,0.00,,,0.00,WUHU216HW,2013-12-25 02:32:00,
2013-12-24 21:37:00,21.2,7.5,30.40,North,0,2.7,6.9,55,0.00,,,0.00,WUHU216HW,2013-12-25 02:37:00,
2013-12-24 21:42:00,21.1,7.3,30.39,NW,315,4.0,5.4,55,0.00,,,0.00,WUHU216HW,2013-12-25 02:42:00,
2013-12-24 21:47:00,21.1,7.3,30.40,North,0,2.7,5.4,55,0.00,,,0.00,WUHU216HW,2013-12-25 02:47:00,
2013-12-24 21:52:00,20.9,7.1,30.39,NNW,338,3.6,5.4,55,0.00,,,0.00,WUHU216HW,2013-12-25 02:52:00,
2013-12-24 21:57:00,20.9,7.6,30.39,NW,315,4.0,5.6,56,0.00,,,0.00,WUHU216HW,2013-12-25 02:57:00,
2013-12-24 22:02:00,20.9,7.6,30.39,NW,315,5.6,7.2,56,0.00,,,0.00,WUHU216HW,2013-12-25 03:02:00,
2013-12-24 22:07:00,20.7,7.7,30.38,North,0,4.0,7.2,57,0.00,,,0.00,WUHU216HW,2013-12-25 03:07:00,
2013-12-24 22:12:00,20.7,7.4,30.39,NNE,23,4.5,6.9,56,0.00,,,0.00,WUHU216HW,2013-12-25 03:12:00,
2013-12-24 22:17:00,20.7,7.7,30.40,NNW,338,4.0,6.9,57,0.00,,,0.00,WUHU216HW,2013-12-25 03:17:00,
2013-12-24 22:22:00,20.5,7.6,30.40,North,0,2.0,4.9,57,0.00,,,0.00,WUHU216HW,2013-12-25 03:22:00,
2013-12-24 22:27:00,20.5,7.6,30.40,WNW,293,1.1,3.4,57,0.00,,,0.00,WUHU216HW,2013-12-25 03:27:00,
2013-12-24 22:32:00,20.5,7.6,30.40,NW,315,0.2,3.4,57,0.00,,,0.00,WUHU216HW,2013-12-25 03:32:00,
2013-12-24 22:37:00,20.3,7.4,30.39,North,0,1.1,1.6,57,0.00,,,0.00,WUHU216HW,2013-12-25 03:37:00,
2013-12-24 22:42:00,20.3,7.4,30.39,NNW,338,0.0,1.6,57,0.00,,,0.00,WUHU216HW,2013-12-25 03:42:00,
2013-12-24 22:47:00,20.2,7.3,30.39,West,270,0.7,0.7,57,0.00,,,0.00,WUHU216HW,2013-12-25 03:47:00,
2013-12-24 22:53:00,20.0,7.1,30.40,SW,225,1.1,1.1,57,0.00,,,0.00,WUHU216HW,2013-12-25 03:53:00,
2013-12-24 22:58:00,20.0,7.9,30.40,ENE,68,1.8,2.5,59,0.00,,,0.00,WUHU216HW,2013-12-25 03:58:00,
2013-12-24 23:03:00,19.8,8.1,30.40,WNW,293,2.7,2.7,60,0.00,,,0.00,WUHU216HW,2013-12-25 04:03:00,
2013-12-24 23:08:00,19.8,7.8,30.40,NW,315,1.8,4.5,59,0.00,,,0.00,WUHU216HW,2013-12-25 04:08:00,
2013-12-24 23:14:00,20.0,7.9,30.40,NW,315,1.1,4.5,59,0.00,,,0.00,WUHU216HW,2013-12-25 04:14:00,
2013-12-24 23:19:00,19.8,8.1,30.40,NW,315,0.9,1.8,60,0.00,,,0.00,WUHU216HW,2013-12-25 04:19:00,
2013-12-24 23:24:00,19.8,8.1,30.40,NNW,338,0.7,1.6,60,0.00,,,0.00,WUHU216HW,2013-12-25 04:24:00,
2013-12-24 23:29:00,19.8,8.1,30.40,North,0,1.1,1.6,60,0.00,,,0.00,WUHU216HW,2013-12-25 04:29:00,
2013-12-24 23:34:00,19.6,7.9,30.41,NNW,338,4.0,4.0,60,0.00,,,0.00,WUHU216HW,2013-12-25 04:34:00,
2013-12-24 23:39:00,19.8,8.1,30.41,NNW,338,1.1,5.4,60,0.00,,,0.00,WUHU216HW,2013-12-25 04:39:00,
2013-12-24 23:44:00,19.8,8.1,30.41,NNW,338,1.6,5.4,60,0.00,,,0.00,WUHU216HW,2013-12-25 04:44:00,
2013-12-24 23:49:00,19.8,8.5,30.41,North,0,1.1,2.5,61,0.00,,,0.00,WUHU216HW,2013-12-25 04:49:00,
2013-12-24 23:54:00,19.6,8.3,30.41,North,0,1.3,2.5,61,0.00,,,0.00,WUHU216HW,2013-12-25 04:54:00,
2013-12-24 23:59:00,19.6,8.3,30.41,North,0,2.0,2.5,61,0.00,,,0.00,WUHU216HW,2013-12-25 04:59:00,